Wind_Speed
97 106 113 120 123 125 127 127 124 118 118 118 115 112 112 111 108 107 107 109 112 109 106 105 104 107 112 114 116 117 117 119 121 122 123 126 123 124
92 97 103 111 121 123 123 125 127 127 128 127 124 121 119 118 117 116 117 116 117 118 117 116 115 118 119 120 121 123 123 125 127 128 128 130 129 130
85 92 95 101 107 117 126 126 125 123 122 124 124 124 123 124 122 122 121 123 121 124 123 121 123 124 124 126 127 128 129 129 130 131 133 134 135 136
77 82 89 93 96 104 111 120 128 128 125 122 121 122 122 123 124 123 124 125 125 127 127 126 126 126 127 127 128 128 131 135 134 138 136 132 130 127
76 80 83 87 88 91 98 107 112 122 126 125 123 122 122 123 123 124 125 125 125 127 127 127 128 130 131 132 133 132 136 136 131 126 124 123 120 117
69 78 82 83 85 87 89 95 102 107 113 121 125 126 125 125 124 123 125 126 127 128 129 131 133 132 133 133 129 127 125 121 118 115 112 110 109 107
62 69 76 79 80 83 84 86 91 98 101 106 110 114 119 122 125 126 127 128 129 129 128 127 125 122 119 117 112 110 108 107 106 105 104 101 101 101
59 64 70 71 73 75 78 81 82 85 90 94 98 99 101 102 105 108 109 110 113 109 107 107 105 103 102 100 100 100 99 98 97 96 97 95 94 90
55 57 60 63 66 68 70 72 74 75 78 82 86 89 91 92 95 96 95 97 97 95 95 95 96 95 93 92 91 91 91 91 92 89 88 86 82 75
50 52 53 56 58 61 64 65 67 68 70 72 75 78 80 80 82 84 83 83 85 86 86 86 85 85 85 84 84 85 85 84 82 79 72 61 55 54
45 47 49 51 53 55 57 59 60 61 62 63 64 67 68 69 72 74 75 75 75 76 77 78 79 79 79 78 77 77 75 70 62 50 41 41 47 51
40 42 44 45 45 46 46 47 48 51 52 53 55 58 61 64 66 66 67 68 69 71 72 73 73 72 72 71 68 63 54 42 35 36 40 41 46 52
36 38 38 37 39 40 41 41 42 44 45 48 52 54 57 59 59 61 62 64 65 65 66 66 64 60 55 50 44 37 31 30 35 40 41 43 50 54
33 32 33 33 33 35 36 38 40 41 43 46 48 50 52 54 54 54 54 54 55 53 50 43 37 36 33 29 27 29 27 35 38 43 45 48 54 59
32 31 30 31 32 33 34 34 35 37 39 41 42 45 46 46 45 43 41 37 33 28 26 26 26 26 25 25 25 31 35 35 40 46 49 51 59 64
29 28 28 28 29 30 29 30 33 34 35 38 38 37 34 29 25 23 21 21 21 22 22 24 23 22 24 27 32 34 38 43 46 51 57 58 61 67
29 29 28 27 25 26 29 30 32 33 35 31 27 24 22 20 18 18 20 20 23 23 22 22 21 24 27 31 36 40 44 48 51 57 63 67 67 70
26 24 24 25 27 27 28 31 32 31 26 26 26 26 22 21 22 22 23 24 24 24 23 22 25 28 32 35 40 46 49 55 58 62 67 72 75 72
27 26 26 26 28 30 30 29 27 25 22 20 20 20 21 24 24 26 27 27 25 24 24 26 29 34 37 39 43 51 56 60 65 69 72 74 75 75
26 27 28 28 29 29 26 25 24 22 22 22 21 23 23 24 25 29 29 26 26 26 28 30 35 39 42 47 49 50 58 64 69 75 78 79 78 75
27 26 27 28 29 28 25 23 22 25 25 24 25 25 26 26 27 28 29 28 28 30 32 37 40 43 47 52 56 60 61 66 72 77 79 82 82 81
27 25 26 27 26 27 27 28 27 28 30 28 22 22 25 24 27 28 29 31 33 35 38 42 45 49 53 57 61 65 70 75 74 76 76 77 76 79
26 26 27 29 29 31 30 30 31 30 28 20 18 17 17 20 23 29 32 35 38 41 43 46 50 53 56 59 63 68 74 78 79 77 73 73 73 71
Wind_Direction
239 239 238 238 238 239 240 240 241 242 244 248 250 250 253 255 256 258 261 262 264 266 268 268 268 269 272 274 277 277 279 280 281 284 284 285 287 287
239 238 238 238 239 239 241 242 243 243 244 248 250 251 253 255 256 259 260 263 265 267 268 270 271 272 274 277 278 280 281 282 284 284 285 287 288 287
240 238 237 238 238 240 241 242 244 245 247 248 250 251 253 255 257 259 262 263 265 267 271 272 272 273 276 278 279 281 281 282 284 286 286 288 288 288
238 237 237 237 238 239 240 242 243 245 247 249 250 252 254 255 256 259 262 264 266 267 270 272 273 275 276 278 280 282 282 284 285 285 288 289 288 289
237 233 233 235 238 239 241 241 243 244 246 249 251 253 254 256 259 261 263 264 267 268 271 273 274 275 277 279 282 283 283 285 285 287 286 287 289 289
238 235 232 232 235 237 239 240 242 244 246 248 250 252 254 257 258 260 262 264 266 267 270 272 274 276 277 278 282 281 283 285 285 286 287 288 288 289
238 236 234 234 235 236 238 241 242 243 245 247 250 252 254 256 258 260 262 264 266 269 271 272 274 277 278 279 281 281 282 284 285 286 287 288 288 288
236 233 234 236 237 239 239 241 243 245 247 250 252 254 256 258 260 262 263 265 265 271 271 273 276 277 278 279 281 282 283 284 286 287 287 289 289 290
236 235 235 235 236 238 240 242 244 247 249 251 253 255 257 259 260 263 266 268 269 272 273 274 275 277 278 279 280 283 284 285 285 287 288 289 290 291
234 234 233 233 234 236 239 242 244 246 249 251 252 255 258 261 262 265 269 270 270 272 273 275 275 276 278 281 282 282 284 285 287 288 291 292 291 289
229 230 230 231 233 235 238 240 243 245 249 251 252 256 260 262 263 265 268 269 271 272 273 275 276 278 279 280 281 283 284 286 288 289 289 287 289 290
225 225 226 226 229 231 233 237 240 244 248 253 256 257 260 263 264 267 269 271 272 274 275 275 276 278 278 280 281 282 283 281 282 283 285 290 297 300
220 219 220 221 224 228 232 237 241 245 249 253 257 261 263 266 268 271 272 272 272 273 273 274 276 276 275 275 273 274 274 280 281 287 296 302 301 300
211 216 218 220 224 229 233 237 241 247 251 256 260 264 269 271 272 271 271 270 270 270 271 270 266 264 261 262 264 277 281 283 293 298 300 302 301 303
206 213 219 221 223 228 234 240 246 251 255 261 265 269 272 274 274 272 268 264 261 254 250 246 244 250 256 262 271 278 282 286 293 296 298 302 305 306
208 212 217 220 225 231 238 243 248 254 259 264 269 271 270 263 259 255 247 243 239 230 226 238 246 256 268 277 280 286 291 296 300 302 304 304 309 311
206 210 216 220 228 233 238 244 251 257 261 260 258 254 253 251 243 242 240 232 219 227 237 243 260 274 282 286 292 296 301 303 305 307 309 310 311 311
206 210 218 222 225 233 242 248 251 252 242 245 250 252 252 253 245 239 220 220 230 237 244 261 274 281 284 288 296 300 303 307 308 309 310 310 310 312
208 212 215 221 230 237 241 244 238 231 233 243 251 257 249 241 236 223 222 230 241 251 263 273 281 284 287 294 301 305 307 308 308 308 308 310 312 314
205 212 220 227 228 230 232 232 228 226 236 245 258 241 233 235 230 228 231 241 253 263 273 278 283 290 295 297 299 301 304 306 308 310 312 314 314 314
211 219 226 226 224 224 225 225 227 232 240 252 251 242 240 238 235 237 244 255 264 271 275 282 289 294 298 301 303 304 305 305 307 310 313 315 315 312
217 219 219 219 224 229 232 231 236 240 244 257 252 252 250 248 243 246 254 263 269 276 280 287 292 296 300 304 305 306 306 307 308 311 315 315 311 310
218 224 231 235 238 237 236 239 241 243 251 256 256 252 253 248 250 252 259 266 272 278 284 291 295 299 302 304 305 306 306 308 310 315 317 312 311 312
Height
10399 10409 10420 10430 10440 10452 10463 10475 10481 10492 10495 10495 10503 10508 10509 10514 10518 10520 10520 10517 10517 10519 10525 10530 10529 10526 10521 10519 10517 10516 10512 10509 10506 10501 10496 10492 10486 10480
10374 10383 10394 10404 10415 10426 10437 10447 10456 10467 10473 10475 10481 10487 10489 10492 10497 10496 10498 10501 10499 10497 10501 10503 10504 10503 10501 10496 10493 10491 10485 10483 10479 10473 10468 10464 10459 10451
10351 10359 10369 10378 10389 10400 10411 10422 10431 10440 10449 10455 10458 10465 10469 10469 10474 10475 10477 10477 10479 10478 10477 10479 10478 10478 10476 10472 10469 10465 10460 10456 10451 10447 10441 10435 10428 10420
10324 10336 10347 10356 10366 10375 10386 10396 10405 10414 10423 10430 10436 10442 10444 10448 10450 10455 10455 10456 10457 10456 10457 10455 10453 10452 10450 10447 10443 10439 10434 10429 10423 10417 10412 10405 10395 10388
10303 10311 10320 10332 10345 10355 10364 10372 10380 10389 10399 10407 10413 10417 10420 10424 10430 10432 10433 10436 10436 10434 10434 10433 10430 10428 10424 10420 10417 10412 10408 10401 10395 10390 10383 10374 10366 10360
10284 10292 10300 10311 10321 10330 10339 10348 10356 10365 10374 10381 10387 10393 10398 10401 10405 10409 10409 10410 10412 10411 10411 10407 10406 10405 10401 10397 10394 10385 10380 10375 10368 10362 10354 10347 10339 10332
10266 10275 10284 10292 10301 10309 10320 10328 10336 10342 10352 10357 10364 10370 10375 10380 10381 10384 10387 10387 10387 10388 10387 10384 10383 10383 10377 10373 10368 10361 10355 10349 10343 10336 10329 10323 10314 10307
10249 10257 10267 10278 10287 10295 10302 10309 10318 10326 10333 10340 10344 10351 10354 10358 10359 10362 10364 10363 10363 10369 10364 10363 10361 10357 10352 10348 10344 10338 10332 10326 10319 10313 10305 10300 10290 10283
10234 10243 10253 10262 10271 10279 10287 10295 10303 10309 10315 10321 10327 10332 10335 10337 10339 10341 10343 10343 10344 10344 10343 10340 10337 10335 10330 10326 10322 10316 10311 10304 10297 10291 10284 10277 10269 10260
10222 10231 10239 10248 10256 10265 10272 10281 10288 10295 10301 10306 10309 10313 10315 10319 10320 10321 10322 10323 10322 10322 10321 10319 10316 10313 10309 10306 10302 10295 10290 10284 10278 10272 10266 10260 10252 10244
10210 10219 10227 10236 10245 10253 10260 10266 10273 10280 10285 10290 10294 10297 10299 10301 10301 10302 10302 10302 10303 10302 10300 10298 10296 10293 10289 10286 10281 10276 10271 10266 10261 10257 10252 10248 10240 10229
10201 10209 10217 10225 10233 10242 10249 10255 10261 10267 10272 10277 10279 10281 10282 10283 10283 10284 10285 10285 10284 10282 10281 10278 10275 10273 10270 10267 10263 10259 10257 10252 10249 10244 10241 10236 10228 10218
10195 10202 10210 10218 10225 10232 10239 10245 10252 10257 10260 10263 10264 10266 10266 10266 10267 10268 10268 10267 10264 10263 10261 10259 10257 10255 10252 10252 10249 10247 10246 10241 10237 10232 10228 10224 10214 10207
10190 10197 10205 10212 10219 10225 10231 10237 10242 10246 10249 10250 10251 10252 10252 10252 10252 10252 10250 10249 10246 10245 10244 10243 10243 10242 10241 10242 10239 10236 10235 10230 10225 10219 10216 10211 10201 10191
10185 10193 10200 10206 10212 10217 10223 10228 10232 10234 10237 10239 10240 10240 10240 10239 10237 10235 10234 10233 10233 10233 10234 10234 10234 10234 10234 10232 10231 10227 10225 10224 10218 10210 10204 10199 10186 10173
10181 10188 10194 10199 10204 10210 10215 10219 10222 10225 10227 10228 10229 10229 10228 10227 10226 10225 10225 10225 10226 10227 10226 10226 10227 10226 10225 10224 10221 10220 10214 10208 10203 10195 10185 10180 10172 10159
10175 10181 10187 10193 10198 10203 10207 10210 10213 10216 10218 10219 10219 10219 10219 10219 10219 10218 10219 10220 10220 10220 10220 10220 10220 10219 10218 10215 10210 10205 10200 10195 10190 10179 10166 10157 10154 10144
10170 10177 10182 10187 10191 10196 10200 10203 10205 10207 10210 10210 10211 10211 10211 10212 10212 10213 10214 10214 10214 10214 10215 10214 10214 10213 10210 10206 10199 10192 10187 10178 10171 10164 10156 10144 10133 10127
10165 10171 10176 10181 10186 10190 10192 10195 10198 10200 10202 10203 10204 10204 10204 10206 10207 10207 10208 10208 10208 10208 10208 10208 10207 10205 10201 10197 10191 10180 10172 10165 10156 10148 10140 10131 10118 10106
10160 10166 10171 10176 10179 10182 10185 10188 10191 10193 10196 10197 10197 10198 10199 10199 10200 10201 10202 10202 10202 10202 10201 10200 10198 10194 10188 10183 10179 10176 10164 10153 10142 10130 10118 10106 10096 10088
10156 10161 10165 10169 10173 10176 10179 10182 10184 10187 10188 10189 10191 10192 10193 10194 10195 10196 10197 10196 10196 10194 10194 10192 10188 10183 10177 10170 10163 10156 10151 10143 10131 10118 10106 10091 10075 10059
10151 10156 10160 10164 10167 10170 10172 10175 10178 10180 10181 10183 10185 10187 10188 10189 10190 10190 10190 10189 10188 10186 10185 10181 10177 10172 10165 10158 10149 10140 10130 10120 10115 10106 10094 10081 10064 10045
10147 10151 10154 10158 10160 10163 10166 10169 10171 10173 10175 10178 10179 10180 10180 10181 10182 10182 10182 10181 10179 10177 10174 10171 10165 10160 10153 10146 10136 10126 10115 10104 10092 10084 10080 10063 10047 10032